Theta_e
307 300 296 296 298 300 301 301 300 299 299 298 298 297 295 296 297 299 300 301 301 298 298 299 299 299 300 302 304 305 306 306 306 306 306 307 307 307 308 308 309 310 310 315 314 314 312 312 312 313 313 313 313 313 312 312 312 313 312 312 311 312 312 311 310 309 309 309 307 308 309 307 305 305 304 304 305 306 306 308 308 309 311 314 314 314
305 298 298 301 301 302 302 302 301 299 298 297 297 297 296 299 295 298 299 300 302 297 297 300 299 300 301 303 304 305 305 304 305 305 306 307 307 308 308 309 310 310 314 315 313 312 312 311 312 312 312 311 310 311 311 311 312 313 312 312 311 311 310 310 311 309 310 311 310 309 308 306 304 302 303 302 303 303 303 304 305 306 308 310 312 313
297 296 299 302 302 302 301 300 300 299 298 298 297 298 296 297 300 301 301 300 300 298 296 299 298 299 301 303 305 305 305 305 307 307 307 307 307 308 309 309 310 311 312 312 312 311 310 311 311 311 312 312 311 311 311 312 312 312 311 311 311 311 309 310 311 311 311 312 313 311 307 306 301 301 302 303 301 301 302 305 302 303 306 308 310 312
294 298 301 302 302 300 299 299 299 299 299 298 297 296 294 301 295 293 299 299 300 298 297 298 296 298 301 303 303 305 305 306 308 308 308 309 308 308 308 309 310 310 312 311 310 309 309 310 310 310 311 311 311 311 310 311 311 311 311 311 311 310 310 309 310 310 313 307 304 303 303 303 303 299 298 300 300 301 300 300 301 301 304 307 308 310
296 300 299 302 301 300 297 298 298 297 295 299 299 298 296 298 298 296 296 300 300 301 299 299 298 298 301 300 302 305 307 307 307 308 309 310 311 311 313 313 312 311 311 312 311 309 308 308 308 309 310 311 310 310 310 311 311 310 311 311 311 310 310 310 309 308 303 302 301 300 299 299 298 298 298 298 299 300 300 299 299 299 300 303 306 308
298 300 303 299 300 299 299 296 298 299 295 297 300 299 298 298 297 298 300 298 296 295 298 299 291 293 301 301 303 306 306 305 307 307 307 308 310 311 309 310 312 313 313 312 312 310 308 308 308 309 310 310 310 310 311 311 311 311 311 311 311 310 311 310 307 305 304 302 301 300 299 298 299 297 297 298 299 299 299 300 300 298 298 300 303 305
299 299 302 301 300 300 300 297 300 300 295 294 297 302 300 299 299 299 298 297 291 290 299 300 290 287 297 297 300 303 303 303 305 306 307 308 308 309 310 311 310 311 311 312 312 312 309 308 308 308 309 310 310 310 312 311 311 311 311 311 309 309 310 309 305 303 303 302 302 302 302 302 302 301 300 302 303 302 302 301 299 297 297 298 300 300
299 299 300 301 300 299 298 296 301 300 296 294 298 301 299 300 299 299 298 298 295 300 301 300 297 290 290 296 301 302 301 302 303 304 306 307 308 310 310 311 311 312 311 312 311 311 310 309 308 307 308 309 310 311 311 311 311 310 310 310 308 309 307 307 304 303 303 302 303 303 305 305 305 305 304 303 302 302 299 298 297 295 295 296 297 298
299 298 299 299 299 298 297 301 304 302 297 298 298 302 301 299 300 299 299 296 297 295 290 296 299 291 290 298 301 302 299 300 301 303 305 306 309 310 312 312 312 312 313 312 312 310 310 308 308 308 308 310 311 311 310 310 311 310 310 309 309 307 305 304 303 303 303 303 303 305 307 306 307 308 305 301 298 298 298 297 296 295 294 294 295 296
299 301 301 302 299 297 300 297 301 302 297 298 301 302 301 301 300 300 297 296 295 292 288 294 297 288 289 297 298 300 299 299 300 302 304 306 308 313 312 313 312 311 311 310 309 309 309 309 308 309 309 309 310 311 311 310 310 310 310 309 308 306 304 304 302 302 303 303 303 305 307 308 305 300 299 298 297 297 298 297 296 295 293 293 293 294
299 299 299 300 299 301 297 298 299 300 301 302 303 301 300 300 299 298 298 296 292 287 289 296 296 293 286 295 297 296 299 300 301 303 304 306 309 310 313 313 313 310 307 307 307 306 308 308 308 308 307 309 310 310 309 309 309 309 309 308 306 307 305 303 302 302 302 303 304 304 305 307 302 301 299 297 297 297 298 297 296 295 294 293 293 293
300 299 299 301 298 300 301 298 300 300 303 304 300 297 298 296 297 295 293 294 286 285 293 297 297 296 285 292 298 301 303 302 302 302 303 304 306 308 311 312 308 306 305 305 305 305 305 305 306 306 306 308 309 309 308 308 309 309 308 306 306 305 303 302 302 302 302 302 302 303 304 306 302 300 299 298 297 297 298 298 296 295 294 293 293 293
295 297 301 299 300 300 300 298 297 300 300 301 298 297 289 287 289 285 290 285 286 285 291 292 295 291 291 295 299 302 302 303 306 305 304 305 306 309 310 313 307 305 304 305 304 304 304 304 304 304 305 307 307 307 307 307 307 308 307 305 304 303 303 301 301 301 301 301 301 301 302 302 300 298 299 299 298 298 297 297 296 295 293 293 292 292
294 300 299 300 298 300 302 294 294 292 296 297 295 293 288 283 283 281 285 289 288 291 292 292 295 289 294 297 301 301 303 304 305 306 309 309 308 309 310 312 306 305 306 306 305 305 304 304 304 304 305 306 307 307 306 306 306 307 306 305 304 303 302 301 301 300 300 300 300 301 301 301 299 298 298 299 298 297 298 297 296 295 295 293 293 292
286 288 295 297 293 301 301 299 299 296 296 296 300 296 290 288 284 282 285 282 284 287 289 292 287 286 287 294 301 303 305 306 306 307 308 310 311 311 312 310 307 305 306 306 305 305 304 304 304 304 305 306 307 307 306 306 306 306 305 305 304 302 301 301 300 300 299 299 300 300 300 300 298 298 299 299 300 299 298 297 297 296 296 295 294 293
290 290 299 301 303 301 299 304 304 301 297 298 300 301 294 290 294 285 287 287 286 286 286 287 286 293 294 302 303 305 306 306 306 306 307 307 308 309 310 311 309 307 306 307 306 305 305 305 304 304 305 306 307 307 306 305 305 305 304 304 304 303 301 301 300 300 299 299 299 299 299 299 298 298 299 300 299 299 299 298 297 297 296 296 295 294
291 289 297 300 301 300 299 302 301 302 287 295 297 291 294 301 296 290 288 288 286 286 283 290 289 294 299 299 301 302 303 303 305 305 305 306 307 308 308 310 310 310 310 308 306 305 305 304 304 304 304 305 306 306 305 305 305 305 304 304 304 304 302 301 300 300 300 300 299 299 298 298 298 298 298 299 298 299 299 298 298 297 296 296 295 293
289 291 292 297 294 296 297 299 302 300 302 297 290 295 301 303 300 292 284 287 286 283 284 290 287 289 290 287 301 300 299 301 302 303 304 305 306 306 308 309 310 311 312 310 307 306 305 304 304 304 305 306 306 306 306 305 305 305 305 304 304 303 301 300 299 299 300 299 299 298 298 298 297 297 298 299 298 298 298 297 297 297 296 294 294 293
298 288 291 293 295 297 299 299 298 301 300 299 295 305 293 287 286 292 288 280 281 281 284 288 290 290 292 292 298 298 298 300 301 303 303 304 305 306 307 308 310 311 311 307 305 304 304 303 303 304 304 306 306 306 306 306 305 304 304 305 304 303 302 301 300 299 299 299 299 299 299 298 297 297 297 298 298 297 297 296 296 295 295 294 292 291
298 288 290 291 295 297 297 297 288 293 299 302 301 297 302 296 290 288 288 287 288 283 283 284 288 286 297 296 299 299 300 301 302 302 303 305 306 306 308 310 311 310 309 307 305 304 303 303 303 303 304 304 305 305 306 305 305 304 304 304 304 304 303 302 300 298 297 298 298 298 298 297 296 296 296 296 296 295 295 295 295 294 293 292 291 291
293 294 285 291 295 296 289 294 292 295 291 292 292 292 295 293 298 295 295 289 286 284 284 284 283 289 297 301 300 301 302 302 303 303 305 307 307 308 309 310 309 308 308 307 305 303 303 302 302 302 303 305 305 306 305 305 304 304 304 303 303 303 303 301 300 298 297 296 296 297 296 296 295 295 295 295 295 294 294 294 294 293 292 291 290 290
290 291 286 290 289 289 293 299 298 299 298 295 293 291 293 290 288 286 284 296 290 287 284 284 283 290 300 302 302 302 303 304 305 304 306 309 308 309 311 309 307 308 307 305 304 303 302 301 301 301 302 304 304 304 304 304 304 303 303 303 303 303 303 301 300 298 297 296 296 296 295 295 294 294 293 293 293 293 293 292 292 292 291 290 290 289
297 296 290 288 290 292 296 297 296 296 297 299 298 294 297 296 294 289 283 287 289 290 290 289 286 289 301 302 303 302 303 304 306 306 307 308 308 308 310 308 307 306 305 304 303 302 302 301 301 300 300 302 303 304 303 303 303 303 302 302 302 302 302 302 300 299 297 296 295 295 294 294 292 292 291 291 291 291 291 291 291 290 290 289 289 289
298 290 289 289 296 297 295 297 297 297 298 297 297 297 298 294 294 292 290 290 289 289 287 287 284 288 301 302 302 296 295 297 303 307 306 307 307 308 309 307 306 306 304 302 301 301 301 300 300 299 299 300 302 303 303 303 303 303 302 302 301 301 302 301 300 299 297 295 295 294 293 292 292 291 290 290 290 290 291 290 290 289 289 289 288 287
291 291 291 287 287 289 291 294 293 297 296 292 294 297 298 299 298 297 294 292 288 289 289 287 282 289 300 301 299 301 299 299 302 302 307 307 308 312 309 306 306 305 304 301 301 300 300 299 298 298 299 299 300 302 302 302 302 302 302 302 301 301 301 300 299 297 296 296 295 293 292 291 291 290 289 289 290 290 289 289 289 288 288 288 287 287
294 293 290 284 282 280 281 282 284 287 289 293 293 294 297 296 296 294 289 290 286 289 289 287 287 293 298 298 299 298 296 300 303 304 302 306 308 308 310 309 306 304 303 303 302 300 298 298 298 298 298 299 299 300 301 302 302 302 302 302 302 300 300 299 297 296 295 294 296 293 292 291 290 289 289 289 289 289 288 288 288 287 288 288 287 287
291 294 293 291 288 287 289 292 297 296 293 288 292 293 295 297 297 297 294 289 287 289 288 290 291 292 295 298 299 298 295 300 301 300 300 303 304 305 306 307 307 306 305 303 303 302 300 298 297 297 298 298 299 299 300 301 302 302 301 301 301 300 299 298 296 295 294 293 293 291 290 290 289 289 289 289 288 289 288 288 287 287 287 287 287 286
289 289 292 293 293 294 295 295 299 297 293 293 292 292 295 295 295 292 290 288 294 290 286 293 295 291 293 296 298 300 299 300 302 303 303 304 306 308 308 308 302 303 303 303 302 301 300 299 298 297 297 297 298 299 299 301 301 301 301 300 300 300 299 297 296 295 293 292 291 291 291 290 289 289 289 289 289 288 288 287 286 286 286 286 286 285
290 288 293 294 292 295 296 296 298 297 296 296 295 295 293 295 294 289 290 294 295 289 287 293 296 293 295 298 300 301 302 302 302 303 304 305 306 306 307 305 304 303 303 302 301 301 300 300 299 297 297 297 297 297 298 299 300 301 301 300 300 300 299 297 296 294 293 292 291 291 290 289 289 289 288 288 288 287 287 286 286 286 286 285 285 286
291 289 292 294 292 294 295 296 297 296 296 295 295 296 296 295 295 294 294 295 295 294 295 295 295 296 298 299 301 302 304 305 304 305 306 305 304 305 306 305 304 305 304 303 302 302 302 301 300 298 297 296 296 296 297 297 298 299 299 299 299 299 299 296 295 293 292 291 291 291 290 289 288 288 288 288 287 286 286 286 286 285 285 285 285 285
292 288 294 293 289 289 293 295 296 295 295 293 296 296 296 297 296 296 295 296 296 295 296 296 295 294 300 302 302 303 304 304 304 304 305 305 305 305 305 305 306 306 306 306 305 304 303 302 301 299 297 296 296 296 296 297 298 298 299 299 299 298 299 295 294 293 292 291 291 290 289 288 287 287 287 287 287 286 286 285 285 285 285 284 284 284
292 288 294 290 287 286 290 291 291 292 291 290 290 293 294 294 293 296 293 297 294 292 294 294 291 293 299 303 303 303 303 302 302 303 304 305 306 305 305 305 305 306 306 306 305 305 304 302 300 299 297 296 296 296 296 296 297 297 297 298 298 299 298 295 293 292 291 291 290 289 289 287 287 287 287 286 286 286 286 285 285 285 284 284 284 284
290 289 288 288 285 285 290 292 290 289 288 286 287 291 294 295 296 297 298 299 298 298 292 289 291 298 300 301 300 300 301 302 303 303 304 305 306 306 305 305 306 306 307 307 306 306 305 303 301 300 299 298 297 296 296 297 296 296 297 297 298 299 295 294 293 292 291 290 290 289 289 288 287 286 286 286 286 285 285 285 285 284 284 284 284 284
290 290 288 290 284 286 288 289 290 287 279 281 293 297 297 294 295 293 293 296 299 299 296 298 298 300 300 300 300 300 301 302 303 305 307 306 305 306 306 306 306 307 308 308 308 307 307 306 304 301 300 299 298 297 297 297 296 297 297 298 298 297 295 294 293 292 292 290 290 290 289 289 288 286 286 286 286 285 285 285 285 285 285 285 284 283
288 289 289 290 286 285 288 287 284 278 281 292 297 299 300 298 298 296 297 297 299 300 300 299 299 299 300 301 301 302 303 304 306 305 305 307 308 307 306 306 306 307 307 308 308 308 307 306 304 302 299 298 298 298 297 296 296 296 296 296 296 296 294 294 293 292 292 290 290 291 290 290 288 287 286 286 285 285 285 285 285 284 285 285 284 283
288 288 289 287 287 287 285 285 277 280 289 296 297 298 300 300 299 298 295 298 299 299 300 298 300 300 301 302 302 303 304 304 305 305 305 306 307 307 306 305 306 307 307 307 308 308 308 306 304 302 301 300 299 298 297 296 296 295 295 295 295 294 293 293 292 292 291 291 290 290 290 289 288 287 286 286 285 285 284 284 284 284 284 284 284 284
293 289 288 285 288 282 285 285 284 290 289 291 293 295 297 294 295 293 288 293 299 300 300 299 300 301 302 302 303 303 303 302 301 302 305 306 307 307 307 306 307 307 307 308 308 308 309 309 307 305 303 301 299 297 296 296 295 294 294 293 293 293 292 292 291 291 291 291 291 290 291 290 289 287 286 286 285 285 284 284 284 284 284 284 283 283
296 288 288 285 284 287 284 282 284 284 280 287 295 299 302 303 301 301 295 290 300 301 302 301 300 301 301 302 302 302 303 298 296 299 304 306 307 307 306 307 306 306 306 306 306 306 306 305 303 302 303 300 298 297 297 295 294 293 292 292 292 291 291 290 290 291 291 291 291 291 291 290 289 287 287 286 285 285 284 285 285 284 284 283 282 282
296 296 291 287 285 285 283 281 281 280 284 292 293 293 298 299 303 300 293 288 297 299 301 301 300 301 301 301 301 302 298 293 295 299 305 305 304 304 304 304 304 305 305 305 304 303 303 301 299 298 298 298 296 296 295 294 293 292 291 291 291 291 290 290 290 291 291 291 291 291 291 290 289 288 287 286 286 285 285 284 284 284 283 283 283 282
289 290 290 286 284 286 285 282 281 286 286 290 293 294 295 297 303 295 284 285 296 297 300 301 300 300 301 301 301 300 297 294 296 301 300 299 300 301 301 300 301 302 301 301 301 300 299 298 297 296 295 295 296 295 293 293 292 290 291 291 291 290 290 290 290 291 292 292 291 290 290 289 288 288 287 286 286 285 285 285 284 283 283 282 282 282
286 286 288 284 285 285 285 284 286 287 291 294 294 294 295 302 299 286 281 290 293 297 296 298 300 302 302 300 301 296 300 302 302 302 301 301 301 301 299 298 298 298 298 298 298 293 296 297 297 296 296 296 295 293 292 291 291 290 290 290 290 289 290 291 291 291 291 291 290 289 289 289 288 287 287 286 286 285 284 284 283 283 282 281 282 281
285 286 286 287 284 284 285 283 283 287 293 298 295 297 298 296 285 284 290 290 292 294 294 295 296 298 296 297 298 299 300 301 300 301 300 301 301 300 300 298 297 297 297 294 291 291 293 294 294 294 294 294 293 292 291 290 289 289 290 289 289 290 291 290 291 290 289 289 288 288 288 287 287 287 286 286 285 284 283 284 283 282 281 281 281 280
286 284 282 283 286 286 285 283 281 278 288 294 294 293 296 289 288 288 288 292 291 291 292 294 296 295 292 292 293 293 295 296 298 298 299 299 299 299 299 298 297 296 296 296 296 294 292 292 293 292 293 291 290 290 290 288 288 288 288 288 289 290 290 290 289 289 288 288 287 287 287 286 286 286 286 285 285 284 283 283 282 281 281 280 280 279
292 285 285 286 290 283 283 280 282 288 290 294 295 290 292 293 291 291 291 290 294 293 293 293 294 295 293 291 290 291 292 293 295 296 296 297 297 298 298 297 295 295 294 294 293 292 289 291 291 292 291 289 289 288 288 287 287 287 287 288 290 288 289 289 288 287 287 287 286 286 286 285 285 286 285 285 284 284 283 282 281 281 280 280 279 279
292 288 289 285 291 287 285 288 289 290 291 294 294 294 294 296 295 292 293 292 292 294 293 292 293 293 292 291 291 290 290 292 293 295 294 295 295 295 295 295 293 293 292 292 292 290 289 290 290 290 289 288 287 288 287 287 286 286 286 288 288 287 287 287 286 286 286 286 286 285 285 285 285 285 285 284 284 282 282 281 280 279 280 279 279 278
289 288 289 288 289 294 293 292 292 291 291 293 295 295 294 294 294 291 293 293 294 294 293 292 292 292 291 290 289 289 290 291 292 293 293 294 294 294 293 293 293 292 291 290 290 289 288 288 288 287 287 287 287 287 287 287 286 286 286 288 287 287 286 286 286 285 285 285 285 285 285 284 284 284 284 284 284 283 282 280 279 279 279 278 278 278
290 287 285 284 290 287 284 289 289 288 290 291 293 294 294 294 294 295 293 294 294 294 293 292 291 290 290 289 288 288 289 291 291 291 292 292 293 293 293 293 293 291 290 289 290 288 287 287 286 286 286 285 286 286 286 286 287 287 287 286 287 286 286 285 285 285 285 285 285 284 284 283 283 282 283 283 283 282 281 280 280 279 278 278 278 278
285 291 287 287 287 286 286 290 287 289 290 291 293 293 293 295 295 295 294 293 293 292 291 290 289 288 289 288 289 288 288 289 289 290 291 291 291 291 291 291 291 290 290 288 288 286 286 286 286 286 285 285 284 285 285 285 286 286 285 285 285 285 285 285 285 285 284 284 284 283 283 283 280 281 282 282 282 280 280 280 280 279 278 278 278 278
290 291 283 289 285 288 290 290 290 290 290 291 291 291 293 294 293 292 292 290 290 289 290 290 290 289 288 288 288 287 287 288 289 289 289 289 289 289 289 289 289 289 289 288 287 286 286 286 285 285 285 285 285 284 285 285 285 285 284 285 285 285 285 285 284 284 284 283 283 283 282 282 281 281 281 281 281 281 280 279 279 279 279 280 280 280
288 284 288 288 283 284 284 286 288 284 285 290 290 291 291 291 290 290 290 290 290 290 290 289 289 289 289 288 287 287 286 287 288 288 288 288 288 288 289 288 288 288 288 288 287 286 285 285 285 285 285 285 285 285 285 284 284 284 284 284 284 285 284 284 284 283 283 283 282 282 281 281 280 281 280 280 280 279 279 278 281 281 280 279 281 282
287 288 287 284 284 283 288 288 290 290 289 290 292 293 291 291 289 288 289 290 290 290 289 288 287 288 289 290 289 288 287 287 287 287 287 288 288 288 288 288 287 287 287 287 285 285 285 285 285 285 285 285 285 284 284 283 283 283 283 284 284 284 284 284 283 282 282 281 281 281 281 280 280 280 280 280 280 279 277 277 279 280 281 281 281 281
Wind_Speed
2 5 6 6 7 9 9 10 1 5 4 3 2 3 5 5 7 7 5 4 3 4 12 14 15 15 17 16 14 14 12 13 13 14 13 12 12 12 13 13 12 12 12 8 10 12 14 14 12 12 11 11 11 11 11 11 11 11 10 10 11 10 9 6 6 6 6 6 5 4 5 4 4 3 2 2 2 2 2 2 2 3 4 6 7 7
4 6 6 8 1 5 2 4 3 3 1 3 2 3 5 4 8 3 1 5 3 4 7 9 12 14 15 15 16 15 14 17 17 17 16 15 15 13 15 15 14 12 6 9 9 10 12 11 13 12 11 12 14 12 13 13 12 12 11 12 11 10 8 7 7 6 6 5 6 5 5 5 5 4 3 3 2 2 1 2 2 3 3 3 4 5
5 7 7 2 5 5 4 1 2 4 3 3 5 2 4 6 5 11 2 5 3 4 9 10 13 12 13 14 16 17 17 16 16 16 15 15 15 14 14 13 13 10 11 10 11 11 11 12 13 12 11 12 13 13 13 12 12 12 12 11 12 11 9 8 7 7 6 6 6 6 6 6 5 3 2 3 3 3 2 1 2 3 2 2 3 4
6 8 5 5 4 4 3 3 2 4 3 4 5 4 5 3 2 4 5 1 3 4 8 10 15 14 15 19 22 21 19 16 15 16 16 15 17 18 17 13 11 12 11 12 13 13 12 13 13 12 12 12 12 12 12 13 14 12 11 12 13 11 9 8 8 7 6 6 7 7 6 6 4 4 3 5 4 3 3 3 3 2 2 3 4 5
6 4 4 2 3 3 5 5 6 5 6 6 6 6 6 3 4 5 6 7 10 7 3 9 13 13 12 13 11 14 15 14 15 14 15 15 15 15 11 10 12 14 12 10 11 12 13 13 15 15 13 12 12 13 13 14 14 10 14 13 13 12 11 9 9 8 7 7 7 6 7 6 7 5 4 4 3 4 4 4 3 3 2 2 3 4
6 4 5 4 3 5 6 6 8 6 6 5 10 9 6 6 8 7 4 8 7 6 3 6 8 4 5 8 7 6 5 8 10 11 13 13 13 12 12 13 12 11 12 12 11 13 14 14 13 13 13 14 12 13 12 12 12 11 12 13 12 11 13 10 10 9 8 7 7 7 7 7 5 5 6 6 8 6 6 6 5 5 2 2 3 3
1 3 4 6 6 5 6 6 7 7 6 7 2 3 7 7 6 5 6 3 5 5 3 4 4 11 4 10 9 7 7 9 9 11 12 12 11 9 10 9 9 11 11 11 11 9 12 12 13 13 13 13 13 12 11 11 12 12 12 13 12 12 12 9 9 10 8 8 7 9 8 7 7 7 5 5 4 5 5 5 6 5 3 2 3 3
6 5 5 4 7 6 5 6 8 11 6 5 2 0 1 3 5 5 3 5 9 7 12 7 5 10 13 8 11 12 10 10 9 10 11 11 10 9 8 8 8 8 8 7 9 10 8 10 12 13 13 13 12 12 11 11 12 13 13 13 14 11 9 8 9 10 9 9 9 9 9 8 8 8 8 8 6 5 5 5 5 5 4 3 3 3
7 8 8 9 8 6 8 0 6 10 6 2 1 1 2 1 1 2 3 5 4 7 8 5 8 4 9 4 10 12 10 9 9 8 10 9 7 6 5 6 6 5 5 5 4 7 8 10 11 11 12 12 12 11 11 11 11 11 12 12 12 11 9 8 10 10 9 8 9 9 8 8 7 7 6 6 5 5 5 6 5 5 5 4 3 3
3 1 4 7 7 7 4 4 4 6 7 3 3 4 5 3 1 2 3 3 4 4 10 8 8 2 19 5 6 10 7 7 7 7 8 7 7 2 4 4 3 2 3 3 1 2 5 6 8 9 10 12 11 10 10 11 11 11 11 12 14 12 9 9 10 9 9 8 8 9 9 10 7 7 7 6 6 6 6 6 6 5 5 4 4 4
2 1 2 2 5 2 6 6 4 6 6 9 6 5 3 2 2 2 2 3 3 6 10 10 13 6 11 2 9 8 6 7 5 5 5 6 6 5 3 3 2 4 4 3 2 2 3 5 7 9 11 11 11 10 11 11 11 11 11 14 14 14 10 10 10 10 10 9 9 7 7 7 8 8 8 7 7 6 7 7 6 6 5 5 4 4
3 3 3 1 3 4 6 7 6 2 4 6 4 4 4 4 3 4 3 2 3 10 0 2 10 13 11 5 4 3 6 5 6 6 6 6 6 5 4 4 4 4 4 5 5 5 6 6 7 9 11 12 12 12 12 11 11 11 12 11 14 14 11 10 10 11 10 9 8 6 8 8 7 7 7 9 9 9 9 8 7 6 5 5 4 5
5 6 4 4 3 5 5 6 4 2 3 4 6 6 4 3 2 3 4 4 8 9 2 3 4 5 19 15 8 2 3 5 6 5 5 7 6 7 7 5 5 5 5 5 5 6 6 7 8 10 11 12 13 13 14 13 12 11 13 13 14 12 12 11 11 11 10 8 7 6 7 6 6 6 6 8 8 9 8 8 8 8 7 6 5 5
3 4 7 5 3 6 7 8 6 3 8 8 9 8 5 6 7 8 7 4 4 3 5 4 3 11 10 10 14 19 15 10 8 7 5 5 8 9 10 4 5 4 4 4 5 5 6 7 8 10 11 12 12 13 13 13 12 12 12 14 14 13 11 11 11 11 11 10 9 8 7 7 6 7 6 6 7 8 8 7 9 9 8 8 7 7
6 5 9 11 6 11 10 11 8 5 11 11 7 9 7 5 4 7 5 7 7 5 2 4 0 4 1 2 2 9 10 12 10 9 7 6 8 10 9 5 4 5 5 5 5 6 7 8 10 10 11 11 12 13 13 12 13 12 13 15 14 13 12 12 12 11 11 10 10 8 7 7 6 7 7 6 6 8 8 8 8 8 7 7 7 7
14 8 4 14 3 16 13 5 2 8 4 7 6 3 6 11 6 9 2 4 3 5 6 5 6 4 5 6 3 2 4 7 10 9 8 10 11 13 9 6 4 6 6 6 6 7 8 8 9 9 10 11 11 13 12 13 13 13 13 16 15 14 13 12 12 11 11 10 9 9 8 8 8 7 7 6 6 7 7 7 8 8 8 7 7 7
4 7 4 3 2 10 7 1 5 2 7 7 7 7 6 7 4 5 1 3 1 3 14 3 11 11 10 17 15 12 12 11 8 8 9 11 15 10 10 7 7 5 4 5 6 7 9 9 10 10 11 11 11 12 13 13 13 14 14 15 14 14 12 13 12 12 11 11 10 10 9 9 8 9 9 8 8 9 7 7 7 6 7 7 7 6
3 2 3 4 6 2 3 4 1 4 3 7 6 6 6 4 5 3 6 1 4 9 9 3 12 12 6 11 8 13 12 11 10 12 13 15 11 9 9 8 7 6 2 4 6 7 8 9 10 10 10 11 12 12 13 14 13 12 13 16 16 14 14 13 12 13 11 11 11 10 11 10 9 8 8 7 8 7 7 7 6 6 5 5 6 6
1 6 3 3 5 4 2 2 3 1 3 3 0 3 6 4 5 8 3 8 7 9 8 8 10 15 11 14 3 10 12 12 13 14 13 12 10 9 9 9 6 4 3 3 5 5 7 8 9 10 10 10 11 11 11 12 12 12 13 14 16 16 14 14 11 12 9 10 8 8 10 11 9 8 7 6 7 7 7 7 6 6 6 6 6 7
3 6 3 2 1 4 3 6 8 8 3 2 1 4 2 2 4 7 8 2 2 8 5 11 5 14 5 7 11 10 13 13 13 12 9 10 9 7 5 4 1 1 2 3 4 5 5 6 7 8 9 10 11 11 10 11 11 13 14 15 16 14 13 13 13 12 11 11 8 7 8 8 8 8 8 7 7 7 7 7 7 7 6 6 6 6
4 4 7 4 3 3 6 8 10 11 11 8 7 8 4 4 3 4 3 6 4 5 7 9 13 11 5 7 3 5 9 9 10 8 7 7 7 5 2 1 1 2 2 3 3 4 5 6 7 8 8 9 9 9 9 10 11 11 12 14 14 15 15 15 13 11 10 8 8 9 10 9 9 9 7 7 7 7 7 7 6 6 6 6 6 7
4 6 8 5 5 9 7 6 10 11 12 12 14 15 15 11 7 6 7 5 2 4 6 6 15 14 3 5 6 3 5 6 6 1 4 6 5 3 3 3 2 2 1 2 2 3 5 6 7 8 8 8 9 10 12 11 11 12 13 12 13 13 13 14 13 12 10 10 9 10 9 9 8 8 7 8 7 6 7 6 6 6 7 7 6 7
9 4 7 7 8 9 4 3 3 2 4 2 6 10 10 9 8 7 9 5 2 6 4 5 7 20 5 6 4 4 4 1 2 4 4 6 6 4 3 3 2 2 2 1 3 3 4 6 7 8 10 11 11 11 12 12 12 12 13 13 13 14 14 13 12 11 10 9 9 10 9 8 8 8 7 8 7 8 7 7 7 6 7 7 7 6
5 2 4 7 3 3 3 3 3 2 2 5 5 3 5 12 13 11 7 2 5 4 7 8 7 17 4 5 5 2 1 1 1 3 8 4 5 5 5 3 3 3 4 3 3 4 5 7 7 7 9 10 11 11 12 12 12 12 12 13 13 15 14 13 11 10 10 11 11 10 10 10 8 9 8 8 8 9 8 7 7 7 7 7 7 8
5 5 7 5 4 4 6 2 4 3 2 3 5 8 9 9 12 6 4 0 5 10 11 8 14 15 2 2 4 4 5 6 6 5 3 7 5 1 3 3 3 4 3 4 6 6 7 7 8 9 10 11 11 11 11 12 13 12 12 12 13 13 13 11 10 10 10 12 13 11 11 11 10 10 9 9 7 9 8 8 8 7 8 8 8 8
5 8 10 10 12 12 10 10 11 8 9 7 6 9 14 14 15 7 8 7 10 14 16 10 14 20 7 5 5 3 3 6 6 7 3 3 2 2 2 2 4 5 5 5 6 7 8 8 7 8 10 10 11 11 12 12 12 12 12 13 11 11 12 10 9 10 10 10 13 12 13 11 10 11 11 10 9 10 9 9 9 9 8 8 9 9
1 2 8 12 13 14 10 2 6 12 8 8 12 15 15 16 16 13 6 9 16 18 9 13 18 23 23 14 3 5 2 7 9 5 5 5 4 4 4 5 4 4 6 7 7 7 6 7 10 10 11 10 11 11 11 12 13 12 12 12 11 11 11 10 10 11 10 9 12 12 13 12 10 9 10 10 9 9 9 9 9 9 9 9 9 9
2 3 11 12 15 15 14 12 6 14 12 15 13 14 16 15 16 14 14 19 18 7 17 15 18 16 26 25 18 12 6 6 6 7 9 7 6 5 7 6 4 5 7 5 6 8 10 9 9 11 12 12 11 11 11 11 12 13 13 13 12 12 11 10 11 11 11 10 10 11 12 11 10 10 10 9 9 10 9 9 9 9 9 9 10 9
5 6 9 11 15 17 15 14 8 11 11 11 15 14 17 18 16 16 20 23 18 13 17 18 15 18 21 25 20 13 16 18 14 10 12 12 8 7 8 7 6 8 7 7 9 10 10 10 10 11 12 12 11 12 13 12 11 11 11 12 12 12 13 12 12 12 11 10 11 11 10 9 10 9 10 11 11 10 10 10 9 9 9 9 9 8
2 7 7 10 13 14 16 16 12 12 10 11 13 15 17 19 22 24 24 23 22 18 19 21 23 22 22 27 21 13 13 13 14 14 9 5 8 11 7 8 9 8 10 11 11 11 11 11 9 10 11 11 13 13 13 13 13 13 13 13 13 13 12 12 13 13 12 12 12 10 11 10 10 11 11 11 12 12 10 10 10 10 9 10 9 9
5 5 9 6 6 13 18 17 14 14 13 13 10 13 16 19 22 24 21 18 18 22 23 25 27 25 23 23 20 20 18 15 17 15 11 14 13 10 14 16 12 13 13 12 10 10 10 10 9 9 10 12 13 14 13 13 12 12 12 12 13 14 14 12 13 13 14 12 11 11 11 10 12 12 13 13 12 12 12 11 10 10 10 10 10 10
4 2 1 0 6 11 17 16 15 8 6 8 14 15 19 23 21 13 12 14 15 17 19 19 17 20 23 15 13 19 18 16 21 19 17 17 18 17 14 15 18 16 14 13 13 14 14 11 10 9 12 12 13 13 12 13 13 13 15 14 14 13 11 12 13 15 15 11 11 11 12 10 12 13 13 12 13 12 12 10 10 10 11 10 9 9
4 3 4 5 9 12 17 12 7 5 5 10 16 24 24 19 13 12 15 18 20 16 13 12 16 18 20 20 16 18 19 16 17 18 16 18 19 17 16 17 19 19 18 17 18 17 16 14 14 13 10 9 11 13 16 14 12 15 16 15 14 11 12 14 13 13 12 12 12 12 13 13 14 14 13 13 12 9 10 10 10 10 10 11 9 9
8 9 6 6 7 8 15 9 3 4 14 16 17 21 13 16 18 21 20 21 20 17 15 17 20 18 21 23 21 20 19 17 18 19 17 17 16 12 14 16 17 17 16 16 18 18 17 13 10 12 13 12 12 14 13 13 15 13 11 10 10 13 12 13 12 12 14 13 14 15 14 14 12 14 14 11 10 10 11 11 12 11 9 9 9 10
9 10 9 6 4 7 9 4 6 14 14 14 10 9 14 18 20 22 23 22 17 18 19 22 24 27 29 27 24 23 22 18 18 18 25 20 12 12 16 18 20 19 18 19 17 15 14 13 13 11 11 12 14 13 10 11 12 10 10 12 14 13 12 14 14 13 14 14 14 15 14 15 15 15 13 11 11 12 12 12 11 11 8 8 10 12
6 9 5 4 3 1 3 8 9 9 2 3 5 11 12 13 13 11 15 19 22 22 20 22 25 27 28 27 24 22 22 20 18 20 25 23 12 13 18 19 20 17 17 18 17 16 13 11 13 13 14 15 11 10 12 13 12 11 13 12 13 12 13 14 14 14 14 15 15 16 16 16 16 14 14 13 12 13 13 13 13 13 10 8 4 2
10 4 4 5 6 8 3 10 12 7 16 15 15 12 7 7 9 11 11 14 17 19 20 21 24 24 23 21 20 20 17 14 16 21 24 12 9 17 20 21 19 19 19 19 17 16 14 11 9 11 11 8 9 11 12 12 11 12 10 12 12 13 13 14 15 16 17 17 17 17 16 16 16 14 14 14 14 14 14 13 13 9 5 7 6 6
11 10 6 9 5 8 8 9 6 6 12 13 15 9 3 6 9 10 10 11 11 15 16 18 20 22 20 16 16 17 13 11 14 18 15 6 11 13 11 13 15 13 13 14 14 14 14 11 6 4 3 5 7 10 9 9 11 12 12 13 13 13 14 15 14 16 18 17 17 17 16 15 15 15 15 15 16 16 13 12 8 6 10 9 11 11
13 14 9 12 5 5 9 9 8 8 7 6 9 3 2 3 5 3 6 10 9 13 7 12 15 13 12 13 15 13 8 10 14 14 15 9 7 6 6 5 5 7 8 9 10 11 11 7 3 3 2 4 8 9 9 10 12 11 12 12 13 13 15 16 18 17 17 18 16 16 15 15 14 15 15 15 15 14 14 13 12 11 9 10 9 9
11 11 8 10 10 9 7 9 11 5 8 7 1 2 1 3 4 6 7 5 3 2 5 8 10 12 14 13 11 10 8 9 13 9 5 5 4 2 3 5 6 7 7 7 7 5 5 4 3 4 6 8 9 3 7 9 10 9 12 12 10 12 16 17 18 16 12 11 13 13 13 11 12 13 14 14 11 10 11 10 10 11 11 9 7 6
5 4 7 14 12 14 14 9 6 6 5 7 3 4 2 3 1 5 13 1 6 8 8 5 5 7 7 7 5 5 5 8 10 13 13 9 10 9 1 2 4 5 8 8 7 6 6 5 5 8 9 8 4 4 7 9 11 12 13 10 12 15 17 14 9 8 10 9 8 8 10 9 10 11 10 10 10 9 9 9 10 11 11 10 8 7
4 3 2 6 10 9 10 10 10 8 4 2 4 8 5 4 7 11 1 0 5 8 9 6 6 8 10 9 9 8 10 11 11 10 11 12 10 8 8 6 6 7 4 4 4 6 5 7 7 8 8 4 1 3 6 7 9 12 12 12 15 18 10 9 10 10 7 8 8 8 9 9 8 9 8 8 9 9 8 7 9 10 10 8 8 9
7 6 8 9 5 6 5 10 8 11 2 3 9 4 3 6 2 2 7 4 3 4 9 8 7 7 8 10 11 9 12 16 15 13 11 10 11 11 10 8 7 7 8 8 7 2 3 6 8 7 7 1 2 4 5 6 9 8 8 12 13 5 7 7 7 7 7 8 10 10 10 9 10 9 8 8 9 10 10 9 10 10 9 10 9 10
8 6 5 6 6 6 9 11 6 1 3 8 5 1 2 4 1 3 3 7 4 3 6 7 7 5 3 5 9 13 12 11 14 13 13 12 11 12 11 7 5 6 7 5 5 5 1 6 8 8 5 3 1 1 2 7 8 7 8 10 3 5 5 7 4 5 6 6 7 8 9 9 9 9 8 10 10 10 10 10 10 8 6 9 8 8
9 8 1 6 4 8 5 3 2 3 3 3 4 3 2 4 1 2 2 3 6 6 4 5 8 8 7 7 8 8 11 13 12 11 12 14 14 13 12 11 8 8 8 8 8 2 2 6 9 8 4 3 2 2 3 4 7 6 9 4 4 5 6 6 6 8 8 8 9 9 9 9 9 9 9 9 10 11 10 10 10 7 5 8 5 6
4 2 1 2 2 5 3 6 6 3 6 5 2 2 2 3 1 1 3 6 3 4 3 5 7 7 8 6 8 11 10 12 14 15 15 14 13 13 12 11 10 6 7 8 8 7 5 5 4 5 6 5 3 4 3 4 4 8 4 3 5 6 5 6 8 8 9 8 9 10 10 11 9 9 9 9 9 8 7 7 7 6 6 6 6 5
2 4 3 1 2 2 4 4 4 4 3 4 2 1 2 2 3 5 2 3 5 6 6 5 5 6 6 7 7 9 12 12 12 13 11 12 15 16 16 15 14 10 9 8 10 5 5 4 6 7 7 7 2 3 2 4 2 2 2 3 4 5 7 7 8 8 8 9 9 9 10 12 8 7 8 10 8 7 9 6 6 5 6 5 8 10
2 3 3 2 1 3 3 6 3 3 4 5 3 1 2 4 5 2 3 4 5 6 5 8 7 7 4 4 5 7 10 10 10 11 12 12 12 13 14 14 14 15 11 6 6 4 6 6 7 7 7 7 5 4 3 3 3 3 4 4 5 6 7 8 9 9 9 10 9 6 9 10 12 12 7 5 6 7 6 5 5 6 10 14 13 12
2 2 1 2 2 3 4 4 1 1 3 5 1 3 4 5 6 7 5 5 5 7 9 8 3 6 7 6 5 4 6 8 6 9 11 11 12 12 13 13 14 12 12 11 5 3 5 5 8 8 6 5 2 3 4 4 3 4 6 6 6 7 8 7 6 6 7 7 5 5 4 4 5 5 5 5 4 3 3 6 12 11 8 4 4 7
1 6 4 5 6 6 5 0 5 5 3 2 1 2 4 4 4 6 7 7 6 7 8 10 12 8 6 6 5 4 4 7 8 8 10 11 10 12 13 13 13 13 12 9 4 3 6 7 7 7 6 4 2 3 4 3 3 3 4 6 7 8 9 9 7 7 8 6 5 6 7 6 6 6 5 5 5 7 6 5 5 3 6 5 7 7
6 4 4 6 5 5 3 4 2 4 5 7 4 3 4 3 4 7 8 7 8 7 6 7 8 11 11 9 1 3 7 7 9 7 9 9 11 10 10 11 12 12 11 7 7 7 6 6 5 5 6 4 1 3 3 3 2 2 3 4 5 7 7 8 6 4 6 9 7 10 10 10 8 10 8 7 8 5 7 5 4 6 8 6 6 6
Wind_Direction
356 210 199 208 219 211 205 220 309 62 37 36 337 297 271 281 281 277 134 113 144 275 255 255 258 260 268 271 272 271 268 264 252 254 254 248 246 244 239 235 229 224 226 196 192 179 178 178 178 180 179 180 182 186 182 182 184 183 176 180 189 190 187 178 170 168 165 162 139 136 163 151 137 125 99 82 61 32 41 14 57 98 115 138 144 147
246 232 219 229 322 8 150 116 114 58 2 268 266 261 253 232 268 301 22 142 154 237 278 274 270 262 264 268 272 272 265 255 253 256 253 251 245 244 240 235 227 226 198 155 164 169 170 176 178 179 181 181 182 189 186 186 184 181 178 184 190 190 185 190 184 164 173 170 170 159 157 142 141 132 149 131 128 105 21 3 57 69 82 116 138 146
204 221 232 159 87 82 64 143 175 244 220 212 254 237 267 258 271 278 247 120 176 216 266 273 276 269 264 264 264 260 254 251 250 250 256 259 259 253 248 244 238 216 195 180 188 175 178 178 180 184 186 188 191 184 187 186 181 182 183 184 191 193 184 187 180 170 177 175 171 164 146 144 120 90 98 128 116 133 141 111 56 80 93 124 145 152
225 221 206 95 117 129 105 147 186 193 229 230 213 227 242 57 340 291 113 347 185 229 297 314 293 273 256 248 248 249 250 257 257 257 257 252 255 254 252 250 244 236 211 192 190 182 178 180 183 188 190 190 189 185 185 186 186 184 186 184 188 191 182 181 175 179 164 116 85 73 91 96 110 140 111 105 122 135 147 142 120 86 120 161 160 162
223 62 43 187 136 190 177 164 186 198 222 212 236 243 257 237 256 250 316 322 298 237 351 286 279 271 227 233 237 241 241 245 252 254 252 248 246 253 260 260 252 251 239 222 193 176 176 181 190 192 191 185 190 189 188 186 186 185 185 182 185 187 186 183 170 165 123 114 103 99 88 90 94 90 116 126 151 165 164 135 143 136 96 145 151 155
230 81 91 141 177 190 176 185 197 208 240 207 211 229 252 282 289 290 306 338 308 271 115 340 315 298 121 185 216 140 167 213 231 235 240 244 243 237 239 241 241 237 241 237 217 184 181 186 185 188 188 190 191 193 188 186 187 182 181 182 181 185 190 184 168 153 148 149 144 142 147 155 160 154 164 178 170 173 169 168 138 110 102 120 125 135
278 110 195 143 158 171 204 228 194 203 238 249 156 223 251 262 298 283 285 325 276 285 102 351 345 288 225 252 230 204 209 237 252 238 248 253 254 242 229 231 228 228 228 225 228 193 179 183 181 186 189 191 191 194 183 184 186 182 181 180 176 187 188 175 163 155 155 155 160 166 168 163 165 161 178 172 166 158 157 143 141 124 115 112 128 105
129 166 148 166 153 178 189 215 186 197 225 231 54 42 54 233 226 260 267 263 270 316 291 198 219 284 288 238 225 217 226 243 245 246 255 258 256 243 234 229 228 225 220 212 211 212 190 177 183 186 188 190 193 185 183 183 183 183 179 173 176 181 178 166 160 164 170 164 171 173 174 174 177 179 168 168 158 147 135 135 131 127 127 121 121 129
174 169 182 173 190 191 209 2 149 189 222 59 109 31 95 156 269 213 258 274 287 324 293 160 188 231 271 80 177 177 208 215 235 249 258 266 264 260 228 228 230 230 230 213 196 213 197 184 184 186 185 189 186 184 180 181 180 177 178 176 175 177 173 159 163 171 176 174 173 179 180 175 187 175 155 138 126 134 143 136 136 135 136 139 131 141
23 59 196 201 185 211 100 49 5 183 219 127 132 92 92 96 111 219 276 270 286 304 267 157 184 257 282 189 161 170 213 191 216 238 249 261 283 164 212 223 202 153 100 85 135 197 199 185 183 186 181 182 186 182 175 178 180 178 181 184 176 179 174 164 171 177 177 176 172 186 190 182 160 137 131 139 142 146 152 148 149 145 151 155 154 148
53 212 336 279 222 45 94 64 32 40 60 132 150 126 139 152 179 197 239 270 291 248 262 173 179 200 276 191 152 157 194 180 200 222 231 256 268 276 253 156 136 124 112 116 131 124 159 169 175 176 181 183 178 176 178 178 178 181 188 193 180 191 175 168 173 176 180 184 187 192 189 180 150 153 145 146 150 154 160 159 161 162 164 162 163 160
150 97 176 127 75 131 113 84 54 23 140 166 166 185 184 216 193 227 212 164 235 261 357 132 192 197 237 135 176 200 136 180 197 209 237 267 274 283 282 125 107 105 116 139 151 158 160 157 173 178 183 182 178 176 178 179 180 183 187 186 182 189 173 166 172 179 182 182 184 182 188 192 166 152 160 161 164 166 167 166 165 165 160 164 160 165
209 219 117 105 294 164 165 125 84 99 198 226 184 186 210 230 181 228 179 219 208 250 115 93 84 283 239 247 280 258 203 196 229 246 258 276 280 280 284 123 116 120 145 161 167 166 172 177 177 184 187 182 184 185 182 180 179 185 194 192 181 183 175 171 171 180 180 178 180 177 182 180 156 160 169 170 166 164 165 167 165 169 172 163 165 175
222 112 160 146 135 237 210 183 154 195 195 199 197 179 191 237 234 252 229 238 278 227 125 160 127 254 289 282 228 243 230 226 215 224 247 258 270 275 272 130 124 150 166 172 169 173 184 185 186 189 189 189 189 187 184 181 182 186 194 201 186 180 174 169 174 181 183 184 184 187 182 178 158 169 174 178 168 169 169 171 172 176 175 170 172 167
219 226 211 149 222 169 207 222 193 201 173 201 202 190 207 220 224 246 228 237 241 275 129 207 173 242 358 42 23 226 238 221 221 224 224 243 259 261 264 122 157 170 192 175 179 188 192 193 189 189 193 193 193 189 187 185 185 187 195 202 188 177 178 174 176 178 183 183 187 186 181 175 168 173 182 187 178 174 175 171 172 179 173 168 161 163
215 245 125 169 27 153 194 197 76 121 138 193 214 236 248 238 245 256 318 303 337 340 286 173 225 274 248 98 148 114 141 196 219 222 227 237 249 251 270 262 196 211 211 180 190 192 197 194 191 191 195 195 194 191 187 189 188 190 195 203 192 179 178 178 178 182 185 187 182 184 181 181 172 177 180 184 175 180 178 172 175 176 169 168 149 141
82 229 89 99 54 183 183 94 197 189 215 174 160 213 210 17 232 266 184 116 98 285 258 202 264 248 267 263 222 186 197 207 197 213 225 235 241 251 262 274 270 261 188 177 189 194 196 191 194 196 193 194 194 193 190 190 190 192 193 199 190 185 179 180 184 187 189 187 183 186 183 182 178 182 183 182 172 170 170 169 174 172 168 149 136 130
220 146 348 162 208 30 15 327 33 31 6 108 213 204 68 48 4 226 259 199 233 249 271 161 252 278 282 298 142 187 208 212 208 223 227 234 241 249 248 254 257 265 257 179 193 200 196 191 193 194 197 197 196 193 192 191 189 192 198 204 198 184 183 180 182 189 188 185 186 186 189 186 182 183 182 181 167 164 161 164 168 156 150 145 130 130
188 243 135 357 25 78 27 95 224 130 12 297 218 37 178 208 214 209 229 251 250 251 278 255 261 261 231 249 213 187 186 206 214 220 229 235 233 230 244 253 255 240 173 175 198 196 196 195 196 195 197 199 198 194 192 190 189 192 200 204 203 193 187 184 184 187 184 186 185 188 187 185 180 179 177 175 164 161 165 166 163 156 143 116 127 136
176 232 178 315 138 102 150 183 209 183 165 280 286 261 328 313 244 193 200 276 252 266 265 276 275 275 181 230 237 227 180 192 202 211 210 234 228 221 224 249 238 190 225 214 209 202 200 203 201 197 196 196 196 194 193 190 190 195 199 203 204 195 189 188 185 182 185 185 172 169 171 175 171 171 171 164 160 165 170 166 161 146 136 146 138 139
214 144 257 114 285 173 195 196 215 169 179 196 217 230 175 209 26 334 254 219 236 261 262 287 290 263 275 209 191 216 198 198 198 180 186 210 223 207 188 126 219 252 227 220 213 196 194 196 195 196 197 196 195 193 190 193 193 194 196 204 199 193 191 192 186 179 185 172 173 174 181 175 171 173 168 157 166 169 167 160 156 152 147 136 147 142
204 165 223 138 187 208 218 178 210 210 199 192 190 205 196 178 190 207 241 186 228 228 244 264 264 277 127 49 129 124 160 192 155 200 224 175 176 170 164 179 193 243 229 204 197 190 197 189 188 189 192 194 195 192 191 192 191 193 197 200 198 199 198 192 187 179 172 174 171 176 177 169 164 166 159 163 164 166 159 154 154 150 139 153 145 152
195 198 220 196 209 212 204 51 34 48 10 293 231 225 202 206 193 200 231 196 190 228 308 273 308 274 118 113 168 132 125 271 289 231 198 149 164 170 183 181 172 191 233 220 193 194 210 197 187 189 191 196 200 197 194 193 193 194 195 196 199 200 200 193 188 175 165 160 168 175 173 168 164 158 161 167 166 169 162 157 154 149 153 150 147 149
127 200 204 240 194 127 101 124 59 58 308 260 239 328 216 203 199 210 227 236 203 173 224 233 233 264 99 79 100 79 76 310 332 232 163 162 174 175 182 168 205 190 188 197 198 208 205 196 183 186 192 198 203 203 199 199 196 197 198 197 196 200 197 192 185 174 166 169 179 178 176 180 170 163 166 171 174 171 164 153 151 150 156 151 148 157
182 195 219 215 230 207 195 169 220 119 206 232 229 194 230 225 214 217 48 6 254 217 221 207 238 260 85 84 98 169 152 191 195 218 208 156 192 215 124 154 194 205 200 200 210 207 202 195 190 193 196 200 202 204 205 202 201 199 202 199 199 198 197 191 179 168 168 179 179 176 181 180 177 171 172 172 171 170 157 153 149 156 159 154 156 162
199 157 180 206 216 221 213 206 208 188 196 208 224 224 203 213 215 192 225 219 240 246 227 224 248 261 244 115 156 141 172 180 194 195 207 214 160 239 180 194 210 199 212 215 205 205 211 203 198 203 200 202 202 203 204 206 201 200 200 204 200 196 193 188 173 166 163 175 185 184 185 183 179 177 174 171 172 168 162 159 159 160 164 163 159 162
176 213 199 201 214 227 230 74 84 127 137 184 209 204 208 211 215 219 227 226 229 240 236 226 240 261 268 247 152 177 228 198 195 188 231 236 217 217 249 239 212 208 217 211 216 212 201 201 208 208 206 206 203 201 203 204 204 199 197 197 198 193 189 183 172 168 169 165 182 181 186 185 177 173 172 175 170 166 166 168 162 163 165 166 162 165
97 205 214 225 232 243 248 250 169 147 171 200 199 199 207 204 205 213 214 228 229 251 254 239 235 249 262 265 256 260 204 224 235 229 228 227 216 193 215 225 220 232 237 222 206 218 217 209 202 208 207 202 204 200 205 206 207 202 194 193 193 193 189 186 176 172 173 169 176 182 186 183 173 171 172 169 169 171 170 166 165 167 165 164 168 172
161 214 220 222 237 247 256 262 203 186 201 198 199 195 199 204 205 211 225 235 231 225 245 256 247 244 256 265 262 252 270 272 269 242 237 244 222 218 221 205 221 237 236 215 227 224 220 213 207 201 201 206 198 202 203 203 208 205 205 197 192 190 194 178 177 177 173 175 180 183 174 166 166 168 169 174 176 173 171 168 164 164 165 168 173 175
138 235 227 225 244 255 259 256 248 234 234 229 219 206 199 198 207 208 222 227 229 238 248 259 265 260 260 265 267 279 278 278 281 291 279 243 217 246 241 226 223 228 220 221 225 221 223 221 204 197 197 198 202 201 202 202 204 203 201 199 192 191 192 170 182 175 175 180 185 177 172 166 165 173 171 176 179 175 168 164 163 167 168 173 175 172
167 229 216 242 266 261 260 261 258 254 262 261 243 247 240 218 208 210 217 226 231 238 240 244 254 263 258 257 278 277 271 278 280 266 247 257 260 243 250 254 242 238 235 231 212 223 219 213 201 190 194 201 200 202 202 205 204 200 204 204 199 195 190 173 177 182 183 179 176 169 167 167 173 177 182 183 177 173 169 165 165 168 170 174 177 176
145 273 54 177 244 255 256 254 256 270 280 280 272 253 242 239 235 217 216 213 220 227 232 246 255 258 265 273 261 271 272 270 271 269 270 270 267 267 260 261 265 257 244 231 229 230 229 208 193 195 202 203 202 195 198 203 202 196 205 202 201 197 182 175 183 186 188 174 166 168 171 169 173 182 187 182 181 175 170 163 164 170 173 175 176 176
161 165 210 203 231 241 255 247 255 249 251 252 251 244 233 238 244 245 236 225 223 224 236 232 240 249 261 270 272 270 273 270 269 271 268 265 263 263 258 263 267 269 265 253 247 245 239 228 214 201 202 195 195 199 205 198 190 202 206 201 199 187 182 184 184 184 179 178 173 176 179 179 182 185 184 186 180 174 169 171 171 174 175 180 174 158
177 194 210 193 233 242 252 253 215 215 229 230 229 239 233 229 225 229 232 231 226 211 224 231 249 259 265 266 263 263 265 263 264 269 269 265 270 260 259 265 267 269 270 262 257 256 252 238 218 213 213 205 205 207 203 192 200 207 198 191 189 193 188 180 182 184 189 187 187 186 186 185 186 190 190 185 180 177 178 178 182 176 173 167 172 177
186 194 215 193 222 230 260 251 226 226 236 241 247 248 234 232 228 230 237 239 238 235 234 239 245 250 254 260 264 268 271 272 270 273 277 269 266 272 273 271 269 270 274 274 274 265 255 243 229 216 207 209 211 206 188 198 204 196 184 187 192 193 185 185 182 186 187 191 193 191 190 190 189 190 187 182 182 181 184 184 183 178 178 166 172 180
190 197 196 226 197 313 259 230 239 229 236 318 271 242 241 237 234 244 256 251 251 247 240 240 240 245 252 256 260 263 268 273 277 273 267 268 275 279 272 269 269 271 270 272 276 274 267 247 234 223 219 219 208 192 193 202 194 190 195 189 192 192 189 184 185 187 188 196 195 196 193 191 192 188 185 182 181 185 187 185 182 180 178 170 153 128
194 182 180 230 177 225 203 230 247 339 312 289 281 255 208 197 172 197 238 243 238 239 240 245 250 254 254 256 264 269 269 274 274 272 263 272 265 249 256 266 270 271 275 279 282 285 288 287 263 238 230 220 193 192 199 199 186 190 184 185 196 194 192 187 190 193 197 201 198 196 194 192 190 187 186 186 183 187 186 182 183 170 141 136 151 156
193 203 174 212 214 199 230 249 259 245 250 260 238 259 96 173 206 204 217 255 254 248 240 246 253 255 259 263 262 263 267 271 268 268 286 287 244 260 257 257 268 276 280 282 285 282 282 285 296 305 255 221 203 204 198 185 182 186 191 195 196 191 194 191 194 195 198 202 199 197 194 189 188 189 187 185 188 187 188 177 153 136 172 167 171 178
204 207 188 208 218 185 213 232 234 239 245 245 289 82 337 4 226 154 201 250 242 257 255 260 261 267 269 262 263 268 269 264 264 275 293 329 1 349 316 300 291 281 279 281 287 294 300 313 318 312 263 222 220 209 191 181 181 188 200 197 197 195 200 201 204 201 202 204 198 196 191 189 189 188 187 189 189 183 177 178 181 172 173 183 175 178
208 204 205 219 213 212 223 229 236 203 249 256 277 50 8 277 123 127 240 255 257 232 190 235 243 251 259 263 267 269 264 264 268 282 32 359 6 350 353 319 314 313 308 313 314 310 303 305 293 272 244 235 236 178 164 166 181 199 204 204 192 200 210 210 209 209 206 201 195 188 187 191 190 186 186 189 181 176 176 167 162 169 173 174 162 126
200 221 210 224 226 230 230 245 254 262 263 275 262 137 81 103 52 247 248 1 354 344 2 351 330 311 317 308 322 297 299 311 323 325 321 320 321 313 290 240 264 272 279 290 298 352 314 296 273 266 261 258 241 174 175 174 188 203 206 199 200 213 214 211 206 198 200 201 188 182 186 188 191 188 183 178 176 168 162 163 163 158 165 170 168 159
191 176 216 213 232 237 235 246 247 271 246 158 88 141 194 141 196 223 96 142 284 337 349 346 334 12 5 343 337 324 316 312 309 306 307 310 311 301 300 295 297 291 269 261 305 316 301 292 282 276 278 277 241 189 182 184 201 211 206 206 216 219 200 188 190 184 183 180 178 175 178 182 178 178 171 163 157 159 161 162 161 165 166 165 161 165
171 185 194 201 210 235 230 246 246 248 324 78 125 57 142 217 294 27 302 320 68 332 335 352 10 40 30 342 330 321 321 320 319 313 313 318 318 316 317 316 306 306 310 315 308 317 277 293 288 278 273 322 185 192 190 187 208 215 212 219 225 190 181 187 170 172 172 171 172 174 173 170 167 168 161 161 161 158 159 157 161 165 166 166 164 164
177 222 197 209 175 220 210 223 231 8 26 344 331 232 49 337 330 259 349 316 351 13 357 341 332 359 43 342 319 319 315 312 312 319 323 320 320 317 318 318 315 307 295 278 246 277 284 269 276 277 262 254 231 210 192 192 213 215 216 227 145 128 152 161 162 160 167 166 161 157 159 158 160 161 163 163 161 162 158 161 161 154 153 164 165 161
175 220 287 252 183 213 241 241 107 154 58 8 51 38 340 359 28 218 283 285 303 340 357 314 313 325 336 328 309 300 307 309 307 307 310 308 310 307 309 314 313 303 296 293 288 267 226 252 269 276 276 257 215 225 200 201 208 219 223 212 144 159 164 161 155 158 166 163 158 156 154 154 159 163 165 165 159 148 140 150 156 141 143 156 137 132
44 91 175 164 272 347 65 100 153 45 34 358 54 122 325 297 238 163 347 329 310 280 291 284 296 304 316 327 318 312 301 304 311 312 315 315 311 307 304 302 295 262 254 271 279 257 249 254 256 263 262 251 216 215 194 199 201 217 225 154 167 161 153 152 155 161 161 157 157 156 151 155 159 160 160 157 159 124 140 129 145 138 144 146 156 153
122 90 65 209 21 324 241 103 52 345 333 224 287 328 214 231 300 334 187 216 272 300 300 290 277 288 290 298 286 285 297 312 318 311 316 323 323 320 319 313 308 299 284 282 275 283 267 250 250 245 246 250 216 206 187 192 203 186 147 152 152 149 150 155 163 164 163 162 155 154 158 158 149 137 152 160 156 125 125 134 140 130 147 153 159 174
268 162 80 212 182 212 260 298 305 256 224 240 212 276 324 325 313 285 276 289 300 302 284 284 301 288 275 280 285 301 301 309 313 316 326 327 319 318 317 318 317 319 313 280 298 301 289 277 265 257 243 241 209 196 197 195 190 152 134 138 139 144 149 159 169 170 170 164 162 151 158 163 158 155 151 145 138 142 145 150 151 159 175 180 180 175
141 215 241 210 189 232 262 260 297 147 263 268 266 225 237 292 316 324 329 324 306 303 303 304 275 286 297 275 265 259 294 304 315 317 320 316 317 321 320 317 316 313 312 313 299 252 256 269 267 268 267 259 214 196 194 197 166 148 149 146 144 147 153 160 158 148 147 151 138 129 115 117 130 142 129 125 113 123 112 152 177 179 177 187 188 184
170 245 217 246 266 264 260 339 33 354 306 322 23 0 2 16 25 314 320 324 330 331 329 324 317 314 282 255 280 297 297 303 310 317 316 316 309 313 317 319 317 314 311 304 297 275 268 264 265 269 258 258 224 197 189 177 154 154 154 150 152 155 159 161 154 150 149 147 138 128 123 130 140 115 105 130 132 152 148 126 101 127 180 172 167 160
200 171 223 229 221 236 113 143 186 183 256 274 313 11 342 352 357 333 327 323 320 324 326 317 307 315 319 314 225 287 277 291 302 313 308 313 314 312 310 312 313 315 316 318 310 293 271 270 267 268 266 264 262 218 188 152 119 117 147 152 158 161 162 160 157 137 134 149 155 166 166 165 148 154 157 151 153 133 137 128 127 75 82 119 147 134